sim
Sign-in with your pilot id or email,
or register
Callsign
Passwort

Schedule Details

Flight Number: RYR6442 (1)
Departure: Brussels South Charleroi Airport (EBCI) at 12:35
Arrival: Fuerteventura Airport (GCFV) at 16:55
Route: Ryanair Passenger Schedule. Enter filed route here before submitting Pirep.

Weather Information
Getting current METAR information for EBCI 182050Z 07005KT CAVOK 14/05 Q1024 NOSIG
Getting current METAR information for GCFV 182030Z 36014KT 9999 FEW045 18/11 Q1019

Schedule Frequency

Route Map